Погода в Липецке

Россия / Липецкая область     52°36′31″N   39°35′57″E
темп.,
°C
ветер,
м/с
пор.,
м/с
влажн.,
%
обл.,
%
осадки,
мм/ч
давл.,
гПа
погр.,
м
23 апреля, пт
пт2300:00+8ююз347563 0.0 102059
03:00+8ю337895 0.0 102041
06:00+9ю348381 0.0 102089
09:00+13ю46635 0.4 1019469
12:00+16ююз674398 0.9 10182435
15:00+15ю475163 0.9 10171079
18:00+14ю475998 0.0 1015237
21:00+10ююв4107572 0.0 1014199
24 апреля, сб
сб2400:00+9ю388379 0.3 1012153
03:00+8ю41187100 0.4 1010291
06:00+8ююз5991100 0.4 1009591
09:00+5зсз6794100 3.9 1009743
12:00+6зсз5883100 3.8 1010820
15:00+10з8105599 4.4 10091807
18:00+8з711545 0.4 10101354
21:00+4зюз6126715 0.4 1011543
25 апреля, вс
вс2500:00+2з8148265 0.0 1012785
03:00+2з8148659 0.1 1013903
06:00+1з714825 0.0 1015698
09:00+5з710615 0.0 10161171
12:00+8з71044100 0.0 10162643
15:00+9зюз793868 0.0 10162410
18:00+9юз594545 0.0 10151098
21:00+6ююз61255100 0.0 1015609
26 апреля, пн
пн2600:00+5юз5884100 0.3 1015704
03:00+4юз4785100 0.7 1015559
06:00+3зюз248697 0.2 1015351
09:00+6з346244 0.2 10151034
12:00+8зюз3445100 0.1 10142023
15:00+9зюз4541100 0.1 10132028
18:00+8юз3451100 0.0 10121041
21:00+5зсз226989 0.1 101244
27 апреля, вт
вт2700:00+4зюз237595 0.0 101266
03:00+2зюз238797 0.2 101259
06:00+2юз358679 0.0 1012145
09:00+6зюз57688 0.5 10111008
12:00+6зсз786734 0.8 10121309
15:00+9з6841100 1.0 10112170
18:00+7зюз575393 0.5 10121203
21:00+4зюз38715 0.6 1013176